#timestamp,LO_Frequency,Hit,StdDev 
1510707615.8,286047003.8,N
1510707635.6,286047005.2,N
1510707655.4,286047009.0,Y
1510707675.3,286047002.9,P
1510707695.1,286047001.2,N
1510707715.8,286046995.8,N
1510707735.7,286046994.8,N
1510707755.5,286046993.6,N
1510707775.3,286046992.3,N
1510707795.2,286046989.8,N
1510707815.9,286046986.5,N
1510707835.7,286046986.0,N
1510707855.5,286046989.9,N
1510707875.4,286046990.0,N
1510707895.2,286046990.2,N
1510707915.0,286046988.1,N
1510707915.9,286046988.1,N
1510707935.8,286046985.0,N
1510707955.6,286046986.4,N
1510707975.4,286046979.7,Y
1510707995.3,286046987.8,P
1510708015.1,286046986.6,P
1510708035.8,286046988.2,P
1510708055.7,286046989.9,Y
1510708075.5,286047000.9,P
1510708095.3,286046996.2,N
1510708115.2,286046991.7,N
1510708135.0,286046987.0,N
1510708135.9,286046987.0,N
1510708155.7,286046991.4,N
1510708175.6,286046987.4,N
1510708195.4,286046985.1,Y
1510708215.2,286046987.4,P
1510708235.1,286046983.9,P
1510708236.0,286046983.9,P
1510708255.8,286046982.1,Y
1510708275.6,286046997.5,P
1510708295.5,286047000.8,N
1510708315.3,286046995.7,N
1510708335.1,286046993.9,N
1510708355.9,286046992.9,N
1510708375.7,286046989.7,N
1510708395.5,286046982.7,Y
1510708415.4,286046990.4,P
1510708435.2,286046987.6,P
1510708455.0,286046989.1,P
1510708455.9,286046989.1,Y
1510708475.8,286046999.9,P
1510708495.6,286046999.6,N
1510708515.4,286046993.3,N
1510708535.3,286046992.6,N
1510708555.1,286046993.2,N
1510708556.0,286046993.2,N
1510708575.8,286046992.5,N
1510708595.7,286046993.0,N
1510708615.5,286046994.4,N
1510708635.3,286046988.6,Y
1510708655.2,286046993.4,P
1510708675.9,286046994.6,P
1510708695.7,286046990.9,P
1510708715.6,286046986.9,Y
1510708735.4,286046991.0,P
1510708755.2,286046989.1,P
1510708775.1,286046995.0,N
1510708776.0,286046995.0,N
1510708795.8,286046996.6,N
1510708815.6,286046995.4,N
1510708835.5,286046994.4,N
1510708855.3,286046991.5,Y
1510708875.1,286046994.0,P
1510708895.9,286046995.7,P
1510708915.7,286046995.2,P
1510708935.5,286046995.5,Y
1510708955.4,286047001.2,P
1510708975.2,286047002.1,N
1510708995.0,286047013.7,P
1510708995.9,286047013.7,N
1510709015.8,286047012.1,N
1510709035.6,286047013.0,N
1510709055.4,286047015.6,N
1510709075.2,286047018.7,N
1510709095.1,286047023.9,Y
1510709096.0,286047023.9,P
1510709115.8,286047013.2,N
1510709135.7,286047018.8,P
1510709155.5,286047023.9,Y
1510709175.3,286047015.1,P
1510709195.2,286047015.5,P
1510709215.9,286047023.5,P
1510709235.7,286047024.3,Y
1510709255.6,286047002.4,P
1510709275.4,286047005.7,N
1510709295.2,286047014.2,N
1510709315.0,286047017.9,N
1510709316.0,286047017.9,N
1510709335.8,286047017.0,N
1510709355.6,286047024.9,Y
1510709375.5,286047008.9,P
1510709395.3,286047014.5,P
1510709415.1,286047014.9,P
1510709435.9,286047019.3,Y
1510709455.7,286047008.8,P
1510709475.5,286047013.0,P
1510709495.3,286047008.8,P
1510709515.2,286047003.9,N
1510709535.0,286047001.4,N
1510709535.9,286047001.4,N
1510709555.7,286047003.1,N
1510709575.6,286047000.1,N
1510709595.4,286047005.7,N
1510709615.2,286047011.8,N
1510709635.1,286047016.6,Y
1510709636.0,286047016.6,P
1510709655.8,286047007.9,N
1510709675.6,286047003.4,N
1510709695.5,286047007.5,N
1510709715.3,286047009.9,N
1510709735.1,286047005.7,N
1510709755.9,286047000.1,N
1510709775.7,286046995.5,N
1510709795.5,286046990.1,N
1510709815.4,286046985.5,N
1510709835.2,286046984.8,N
1510709855.0,286046978.6,N
1510709855.9,286046978.6,N
1510709875.8,286046978.0,N
1510709895.6,286046975.3,N
1510709915.4,286046969.3,N
1510709935.2,286046961.4,N
1510709955.1,286046956.3,N
1510709956.0,286046956.3,N
1510709975.8,286046950.4,N
1510709995.6,286046947.0,N
1510710015.5,286046944.8,N
1510710035.3,286046942.8,N
1510710055.1,286046941.3,N
1510710075.9,286046939.8,N
1510710095.7,286046936.2,N
1510710115.5,286046938.1,N
1510710135.4,286046937.6,N
1510710155.2,286046939.2,N
1510710175.0,286046937.9,N
1510710175.9,286046937.9,N
1510710195.8,286046936.0,N
1510710215.6,286046938.6,N
1510710235.4,286046940.8,N
1510710255.3,286046953.3,N
1510710275.1,286046955.0,N
1510710276.0,286046955.0,N
1510710295.8,286046952.6,N
1510710315.6,286046953.3,N
1510710335.5,286046963.8,N
1510710355.3,286046963.0,N
1510710375.1,286046964.1,N
1510710395.9,286046966.4,N
1510710415.7,286046971.5,N
1510710435.5,286046983.2,N
1510710455.4,286046996.0,N
1510710475.2,286046993.6,N
1510710495.0,286047001.8,N
1510710495.9,286047001.8,N
1510710515.8,286047012.3,N
1510710535.6,286047005.9,N
1510710555.4,286047001.4,N
1510710575.3,286047011.5,N
1510710595.1,286047020.8,N
1510710596.0,286047020.8,N
1510710615.8,286047030.0,N
1510710635.7,286047028.8,N
1510710655.5,286047030.5,N
1510710675.3,286047024.9,N
1510710695.1,286047026.6,N
1510710715.9,286047019.0,N
1510710735.7,286047025.1,N
1510710755.5,286047034.5,N
1510710775.4,286047040.5,N
1510710795.2,286047045.8,N
1510710815.0,286047041.4,N
1510710815.9,286047041.4,N
1510710835.8,286047043.4,N
1510710855.6,286047045.8,N
1510710875.4,286047035.4,N
1510710895.3,286047039.6,N
1510710915.1,286047036.3,N
1510710916.0,286047036.3,N
1510710935.8,286047029.7,N
1510710955.7,286047030.2,N
1510710975.5,286047029.5,N
1510710995.3,286047029.6,N
1510711015.2,286047019.2,N
1510711035.9,286047018.6,N
1510711055.7,286047014.6,N
1510711075.5,286047015.4,N
1510711095.4,286047014.8,N
1510711115.2,286047011.1,N
1510711135.0,286047013.4,N
1510711135.9,286047013.4,N
1510711155.8,286047012.2,N
1510711175.6,286047010.6,N
1510711195.4,286047007.0,N
